Temperature
15 16 17 18 18 18 18 19 19 19 19 18 17 16 15 14 14 14 13 13 13 13 13 13 12 12 12 12 12 12 12 12 12 11 12 12 12 12 13 13 13 13 13
14 15 16 17 17 18 18 18 18 18 18 17 16 15 14 13 13 13 13 13 13 13 12 12 12 12 11 11 11 11 11 11 11 10 10 10 10 11 12 12 12 12 12
14 15 15 16 17 17 17 17 17 17 17 16 15 14 13 12 12 12 12 12 12 12 11 11 11 11 11 11 10 10 10 9 10 9 9 10 10 10 11 11 11 12 12
13 14 15 15 16 15 15 16 16 15 15 14 14 13 13 13 12 11 11 11 11 11 11 11 11 11 10 10 10 10 9 9 9 9 9 9 9 9 9 10 10 11 11
13 13 14 14 14 14 14 14 14 14 13 13 13 13 12 12 11 12 12 12 11 11 11 11 10 10 10 9 9 9 9 8 8 8 8 8 8 8 7 8 8 8 9
12 13 13 13 13 13 13 13 14 13 13 13 12 12 12 12 12 12 12 11 11 11 10 10 9 9 8 8 8 8 8 7 7 7 7 6 5 5 5 5 6 6 7
12 12 12 12 12 13 13 13 13 12 12 12 12 12 11 11 11 11 10 10 10 10 9 9 8 8 7 7 7 6 6 6 6 5 5 5 4 4 4 3 4 4 5
12 12 12 12 12 12 12 12 12 12 11 11 11 11 10 10 10 9 9 9 8 8 7 7 7 7 6 6 6 5 5 4 4 4 4 3 3 3 2 2 2 3 4
12 12 12 12 12 12 11 11 11 11 11 10 10 10 9 9 9 8 8 7 7 6 6 6 6 6 6 5 5 5 4 3 3 2 2 2 1 1 1 1 1 1 1
12 12 11 11 11 11 11 11 10 10 10 9 9 9 8 8 8 7 7 6 6 5 5 5 5 5 5 5 4 4 3 2 2 1 1 0 0 0 0 0 0 -0 -0
12 12 11 11 11 10 10 10 10 9 9 8 8 7 7 7 6 6 5 5 5 5 5 5 5 4 4 4 3 3 2 1 0 -1 -1 -1 -1 -1 -1 -1 -1 -1 -1
12 12 11 10 10 9 9 9 8 8 8 7 7 7 6 6 5 5 5 4 4 4 4 4 4 4 3 3 2 1 1 -0 -2 -2 -3 -3 -3 -2 -2 -2 -2 -2 -2
12 11 10 10 9 9 8 8 8 7 7 6 6 6 5 5 4 4 4 4 4 4 4 3 3 3 2 2 1 0 -0 -1 -3 -3 -4 -4 -4 -3 -3 -4 -4 -3 -3
12 11 10 9 8 8 7 7 7 6 6 6 5 4 4 4 3 3 3 3 3 3 3 2 2 2 1 1 0 -1 -1 -2 -3 -4 -4 -4 -4 -5 -5 -5 -4 -5 -5
10 10 9 8 7 7 7 6 6 6 5 4 4 3 3 3 3 3 3 3 2 2 2 1 1 1 0 -1 -2 -3 -3 -4 -4 -4 -4 -4 -5 -5 -5 -5 -5 -5 -5
9 9 8 7 7 6 6 6 5 4 4 3 3 2 2 2 2 2 2 2 2 1 1 0 -0 -1 -1 -2 -3 -4 -5 -5 -5 -5 -5 -5 -6 -6 -6 -6 -6 -6 -6
10 9 8 7 6 6 5 5 4 3 3 2 2 2 2 2 1 1 1 1 1 0 -0 -1 -2 -2 -3 -3 -4 -5 -6 -6 -6 -6 -6 -7 -7 -7 -7 -7 -6 -6 -6
10 8 7 6 6 5 4 4 3 2 2 2 2 1 1 1 1 0 0 -0 -1 -1 -2 -2 -3 -3 -4 -4 -6 -7 -7 -7 -7 -7 -7 -7 -7 -7 -7 -7 -7 -7 -7
9 7 6 5 5 4 3 2 2 2 1 1 1 1 0 0 -0 -0 -1 -2 -2 -3 -3 -3 -4 -4 -4 -5 -7 -8 -8 -8 -7 -7 -7 -7 -7 -7 -7 -7 -7 -7 -7
7 6 5 4 4 3 2 2 1 1 1 1 0 -0 -0 -1 -1 -2 -2 -3 -3 -4 -4 -4 -4 -5 -6 -7 -8 -8 -8 -8 -8 -8 -8 -8 -8 -7 -7 -7 -7 -8 -8
5 5 4 3 2 2 1 1 0 0 0 -0 -0 -1 -1 -1 -2 -3 -3 -4 -4 -4 -4 -4 -5 -6 -8 -8 -9 -9 -8 -8 -8 -8 -8 -8 -8 -8 -8 -8 -9 -9 -8
4 3 3 2 1 0 -0 -0 -0 -0 -0 -0 -1 -1 -2 -2 -3 -4 -4 -4 -5 -5 -5 -6 -7 -8 -9 -9 -9 -9 -9 -8 -8 -8 -8 -8 -8 -8 -9 -9 -9 -9 -9
3 2 1 1 -0 -0 -1 -1 -1 -1 -1 -1 -1 -2 -2 -3 -4 -4 -5 -5 -6 -6 -7 -8 -9 -9 -9 -10 -10 -9 -9 -9 -9 -9 -9 -9 -9 -9 -10 -10 -10 -10 -10
2 1 0 -0 -1 -1 -1 -1 -1 -1 -1 -2 -2 -3 -3 -4 -4 -5 -5 -6 -7 -8 -9 -10 -10 -10 -10 -10 -10 -9 -9 -9 -9 -9 -9 -10 -10 -10 -11 -11 -10 -10 -10
1 0 -0 -1 -0 -1 -1 -1 -2 -2 -2 -3 -3 -4 -4 -4 -5 -5 -6 -7 -8 -10 -10 -10 -10 -10 -10 -10 -9 -9 -9 -9 -9 -9 -10 -11 -11 -11 -11 -11 -11 -11 -11
0 -0 -1 -1 -1 -1 -1 -2 -2 -3 -3 -4 -4 -4 -5 -5 -6 -7 -7 -8 -9 -10 -10 -10 -10 -10 -10 -10 -10 -10 -10 -10 -10 -10 -11 -11 -11 -12 -12 -12 -11 -11 -11
Wind_Speed
6 8 9 9 9 11 11 11 11 9 5 3 3 2 2 2 3 3 4 5 5 5 3 4 6 6 6 8 9 9 11 11 9 8 11 12 13 14 14 14 15 16 17
7 9 10 10 10 10 10 11 12 11 9 5 4 4 5 6 6 8 10 12 11 11 8 8 7 7 6 7 8 8 7 7 6 5 7 8 7 9 12 12 13 15 14
6 6 8 9 9 11 10 11 13 14 13 10 7 7 6 5 7 8 8 8 11 12 10 9 8 8 7 7 8 8 8 8 7 6 7 9 9 6 6 9 12 14 13
5 5 6 8 9 8 9 11 13 14 14 12 13 14 10 8 6 5 6 8 9 10 11 9 8 8 7 8 8 9 7 8 8 7 6 9 10 12 10 6 7 10 12
7 6 6 7 7 7 8 10 12 14 12 12 12 12 10 6 5 5 8 9 8 8 11 9 8 9 8 8 9 9 9 6 7 7 8 9 10 9 12 15 10 8 8
7 6 6 7 8 7 8 9 12 12 11 12 11 11 10 9 9 9 9 7 6 7 10 9 9 9 8 9 9 9 9 8 8 7 7 7 7 10 10 14 16 14 10
8 7 8 7 7 8 8 9 11 11 10 11 11 10 9 9 10 8 8 8 7 6 10 9 9 9 9 9 9 9 9 9 9 8 8 7 7 8 10 13 15 18 14
7 8 8 7 7 8 7 8 10 9 9 10 9 9 9 7 7 7 7 7 6 6 9 10 10 10 10 11 10 8 9 8 9 11 10 9 8 8 9 10 14 17 16
9 8 7 7 7 7 7 7 9 9 9 8 9 9 9 8 8 7 7 6 6 7 9 9 10 10 10 10 10 8 10 9 9 10 10 9 8 7 8 8 9 11 18
8 8 7 6 6 6 6 7 8 9 8 8 8 8 8 8 7 7 8 7 8 8 8 9 9 10 10 10 10 10 9 10 10 9 10 10 9 8 7 8 8 8 12
9 8 7 7 7 6 7 7 8 8 8 8 8 8 7 7 7 6 7 7 7 8 8 9 9 10 10 11 11 11 11 12 12 10 11 11 11 9 9 9 9 9 9
8 8 8 8 7 7 7 7 7 8 7 7 7 7 6 6 7 7 7 7 8 8 8 9 9 10 11 11 11 12 12 13 12 11 10 11 12 12 11 10 11 11 10
8 8 8 7 7 7 7 7 7 7 6 6 6 6 6 7 7 7 8 8 8 8 9 9 10 11 12 12 10 10 12 12 11 11 11 13 13 14 12 13 13 11 12
9 8 8 7 7 7 6 6 6 5 5 5 6 6 6 7 7 7 8 8 8 9 10 11 11 11 13 12 11 14 14 12 11 10 11 13 14 15 16 15 11 12 14
8 9 8 7 7 6 5 5 5 5 5 5 5 5 6 6 7 7 8 8 8 10 10 11 11 11 12 12 17 16 16 14 14 13 12 13 20 24 20 19 17 17 16
8 8 8 8 6 6 5 4 4 4 4 4 5 5 6 7 7 8 8 8 9 10 11 12 13 14 14 23 27 23 16 15 15 17 17 17 17 22 29 31 30 28 22
9 9 8 7 6 5 5 4 3 3 4 4 5 6 6 7 7 9 9 9 10 11 12 12 13 14 17 26 27 28 20 14 15 16 17 18 19 24 17 24 30 27 32
8 8 7 6 5 4 4 4 4 3 4 5 6 6 7 7 8 8 9 9 9 11 11 12 13 14 17 26 28 29 17 14 15 15 16 17 17 19 23 22 22 21 22
7 6 6 6 6 5 4 4 3 3 4 5 6 7 7 7 8 9 9 9 10 12 11 12 12 14 17 25 27 28 14 14 15 15 16 19 17 28 34 26 25 25 22
6 7 7 7 6 4 4 3 3 4 5 6 7 7 7 7 8 9 8 8 10 11 13 13 11 12 15 23 27 28 14 15 16 15 15 22 25 32 35 25 23 23 23
7 7 7 6 5 3 3 2 2 4 5 6 7 7 7 8 8 7 7 10 11 12 12 14 12 11 15 21 26 28 16 16 17 17 16 16 30 35 36 31 20 25 28
7 7 7 5 3 2 2 1 3 5 6 6 7 8 8 8 9 9 9 9 10 12 13 13 14 9 10 18 22 28 27 26 19 17 16 18 32 35 35 26 27 34 29
6 5 6 5 3 2 1 2 4 6 6 7 8 8 9 8 8 9 10 10 9 10 12 13 13 12 9 13 25 27 29 30 20 17 26 29 32 31 23 27 32 27 17
5 5 5 3 1 1 2 4 6 6 6 7 8 8 8 8 8 7 7 9 10 11 13 14 15 15 13 11 12 15 17 22 19 16 21 27 27 23 24 23 20 16 16
5 5 4 2 1 3 4 5 6 6 6 8 8 8 8 8 8 8 7 10 9 12 15 13 13 15 15 18 28 23 18 18 19 21 13 13 15 16 16 16 16 15 16
5 4 3 0 3 4 6 7 6 6 6 7 7 7 7 7 8 10 11 15 16 22 24 23 21 18 22 29 30 31 30 30 30 22 15 15 16 17 18 18 18 18 17
Wind_Direction
16 17 20 19 24 26 27 26 31 21 37 72 89 91 50 25 24 15 6 0 353 338 309 302 302 301 289 287 284 280 279 277 274 278 280 273 261 258 257 254 252 251 249
41 27 26 29 32 30 28 35 38 36 40 60 75 84 83 59 55 50 46 42 40 35 32 19 5 352 338 330 321 310 296 288 272 262 282 287 270 247 248 250 250 251 250
88 55 42 39 38 36 31 46 45 45 45 51 66 66 59 51 42 35 35 30 36 35 30 24 17 7 4 351 340 337 322 312 301 262 269 290 292 286 250 245 249 249 248
107 87 68 55 46 38 39 50 53 52 49 54 68 72 72 65 40 30 28 25 28 29 23 17 12 6 2 355 349 349 336 329 325 317 286 285 295 299 299 258 254 260 259
131 108 86 75 60 50 53 57 62 59 55 60 67 74 73 68 51 36 30 24 18 20 17 12 7 2 355 347 343 341 337 331 324 322 317 315 313 303 307 305 302 289 275
143 116 96 86 72 61 61 65 71 63 58 64 64 70 70 58 47 34 25 16 8 9 11 5 1 355 350 343 338 332 328 323 321 320 317 318 315 318 314 308 307 303 298
153 134 114 97 85 75 71 73 78 69 60 63 60 59 60 56 48 33 21 15 6 0 0 360 354 351 344 339 336 330 326 320 323 319 315 310 304 308 310 309 308 306 301
162 147 132 117 103 92 83 82 81 74 64 64 61 54 52 51 42 30 21 13 2 351 354 353 350 346 343 342 338 330 324 324 320 320 315 311 307 307 309 309 313 311 306
167 155 137 121 114 103 91 89 87 76 64 63 65 53 46 42 33 23 17 8 358 355 352 346 343 340 338 338 335 328 323 324 322 316 310 309 308 307 304 306 311 309 309
164 154 138 126 116 106 93 79 78 76 65 59 58 58 43 35 26 19 11 1 351 346 341 341 337 335 333 334 331 326 324 328 324 319 319 319 317 313 310 308 305 298 298
165 154 138 127 116 99 85 75 68 66 60 60 58 50 37 26 19 13 0 349 342 339 339 337 335 334 333 332 328 324 327 326 321 322 326 323 320 317 313 305 300 294 290
157 145 136 126 111 95 79 69 63 61 59 62 58 46 29 18 11 360 350 344 341 336 335 332 331 331 332 326 321 321 325 319 318 320 321 318 317 307 302 299 295 291 285
145 135 130 122 111 96 81 68 60 59 61 63 54 37 19 8 359 348 343 343 340 336 337 336 334 332 330 324 317 316 317 313 312 313 314 315 311 307 304 300 296 293 299
143 136 127 116 107 95 84 74 61 58 66 59 45 27 8 355 346 338 338 339 337 337 337 334 330 328 326 320 322 323 318 315 312 308 308 310 309 308 309 308 303 309 307
139 138 131 122 113 102 91 82 70 58 60 51 34 10 350 342 340 337 336 334 334 337 328 329 329 328 327 327 328 325 322 320 317 315 310 308 311 312 313 313 314 312 306
141 136 133 131 128 124 115 99 79 61 55 42 16 352 344 341 339 334 333 332 331 330 331 331 330 329 330 326 328 327 320 318 318 317 315 312 310 312 317 314 311 310 308
148 148 149 147 142 136 128 115 91 65 49 24 358 345 338 334 330 332 334 333 331 330 330 327 324 320 319 325 326 325 324 316 313 310 311 312 314 316 307 308 311 309 304
152 153 148 137 125 114 109 105 81 52 27 3 343 333 328 324 324 328 330 328 326 326 321 318 315 314 317 324 325 324 324 312 306 306 306 307 308 311 314 313 311 306 303
151 142 133 126 116 108 108 100 64 28 4 342 326 319 319 322 327 327 324 322 322 320 314 313 312 313 316 322 324 326 317 312 308 307 309 312 311 312 318 318 313 310 308
115 116 115 113 109 99 98 85 37 0 333 316 308 308 314 319 318 312 310 312 313 310 312 311 310 308 310 316 325 325 318 316 315 314 312 314 316 317 320 320 316 313 311
119 122 118 112 107 96 91 68 348 314 301 302 306 312 315 315 307 304 306 307 309 311 312 311 311 305 308 318 323 323 325 320 319 319 318 316 318 321 323 323 317 311 313
126 122 117 116 110 105 107 331 301 293 300 308 311 312 311 311 315 308 304 302 307 313 314 313 312 304 304 317 320 323 323 323 320 318 316 316 321 325 324 323 317 318 320
132 123 129 134 134 135 151 300 296 305 313 316 313 309 306 299 296 296 303 310 311 313 313 313 313 315 313 317 321 321 322 323 323 315 317 321 324 325 323 319 320 322 317
135 130 136 147 178 286 311 292 298 309 315 311 307 303 300 297 291 293 297 306 310 309 310 313 315 317 317 316 317 318 320 322 321 317 320 325 322 322 322 322 320 317 313
136 137 144 161 270 308 310 305 306 311 307 300 297 297 297 294 300 299 295 304 293 300 310 312 314 316 317 317 321 324 323 324 324 329 325 322 323 325 324 322 319 318 317
140 138 137 194 306 314 309 306 306 302 296 299 298 298 300 301 305 307 308 307 310 313 313 313 314 315 314 317 322 324 324 329 332 333 325 324 323 323 324 322 321 320 320
Height
1478 1477 1477 1477 1477 1477 1476 1475 1474 1473 1473 1474 1475 1476 1478 1480 1480 1480 1480 1479 1479 1478 1477 1475 1474 1472 1470 1468 1465 1462 1459 1456 1454 1449 1443 1439 1438 1435 1433 1430 1427 1424 1422
1479 1479 1479 1479 1479 1478 1478 1476 1475 1475 1474 1474 1475 1476 1477 1478 1479 1479 1479 1478 1477 1476 1474 1472 1470 1468 1466 1463 1461 1457 1453 1450 1449 1444 1438 1431 1427 1424 1423 1421 1418 1415 1413
1480 1480 1480 1480 1480 1480 1479 1478 1477 1477 1476 1477 1477 1477 1478 1479 1480 1479 1479 1478 1476 1475 1473 1471 1468 1466 1463 1460 1457 1453 1449 1445 1443 1441 1437 1429 1419 1415 1413 1411 1409 1406 1402
1481 1481 1481 1481 1481 1481 1481 1481 1480 1479 1479 1479 1479 1479 1480 1480 1480 1480 1480 1478 1476 1474 1472 1469 1467 1464 1461 1457 1454 1450 1446 1442 1438 1435 1432 1428 1421 1414 1403 1400 1400 1398 1394
1482 1482 1482 1482 1483 1483 1483 1483 1483 1482 1482 1482 1482 1481 1481 1482 1482 1481 1480 1478 1475 1473 1470 1467 1464 1461 1457 1454 1450 1447 1443 1439 1434 1430 1425 1421 1416 1412 1405 1394 1390 1389 1387
1482 1483 1483 1484 1484 1485 1485 1485 1485 1484 1485 1484 1484 1484 1483 1483 1482 1480 1478 1476 1473 1471 1467 1464 1460 1457 1453 1450 1446 1442 1438 1434 1430 1425 1420 1416 1411 1406 1401 1393 1384 1379 1375
1481 1482 1483 1484 1485 1485 1486 1486 1486 1486 1486 1486 1485 1485 1484 1483 1481 1479 1476 1473 1470 1467 1464 1460 1456 1453 1449 1445 1441 1437 1433 1428 1424 1419 1415 1410 1406 1402 1397 1390 1381 1373 1366
1480 1481 1483 1484 1485 1486 1486 1487 1487 1486 1486 1486 1485 1485 1484 1482 1480 1477 1475 1471 1468 1465 1461 1457 1453 1449 1445 1440 1436 1431 1427 1422 1417 1413 1409 1404 1399 1396 1391 1386 1379 1368 1358
1478 1480 1482 1483 1484 1485 1486 1487 1487 1486 1486 1486 1485 1484 1483 1481 1478 1476 1472 1469 1465 1461 1457 1453 1449 1445 1440 1435 1430 1425 1420 1416 1411 1406 1402 1398 1393 1389 1385 1380 1376 1370 1359
1477 1479 1481 1482 1484 1485 1485 1486 1486 1486 1486 1485 1484 1483 1481 1479 1476 1473 1469 1466 1462 1457 1453 1449 1444 1440 1435 1430 1425 1420 1414 1409 1404 1399 1395 1390 1386 1381 1377 1373 1368 1364 1358
1475 1477 1479 1481 1483 1484 1485 1485 1485 1485 1485 1484 1483 1481 1479 1476 1473 1469 1465 1461 1457 1453 1449 1444 1439 1435 1430 1425 1420 1414 1409 1403 1398 1393 1388 1383 1379 1373 1368 1364 1359 1354 1350
1474 1476 1478 1480 1482 1483 1484 1484 1484 1484 1483 1483 1481 1479 1476 1473 1469 1466 1461 1457 1454 1449 1445 1440 1435 1430 1425 1420 1415 1409 1403 1398 1392 1387 1381 1376 1371 1365 1360 1354 1348 1343 1339
1472 1474 1476 1478 1480 1482 1482 1483 1483 1483 1482 1481 1479 1476 1473 1469 1466 1462 1458 1453 1450 1445 1441 1436 1431 1425 1420 1415 1409 1404 1398 1392 1387 1381 1375 1368 1362 1355 1350 1344 1339 1334 1329
1470 1472 1475 1477 1479 1480 1481 1481 1482 1481 1480 1478 1475 1472 1469 1465 1462 1458 1454 1450 1446 1441 1436 1432 1427 1421 1415 1410 1404 1398 1391 1385 1380 1374 1368 1361 1355 1349 1342 1336 1331 1326 1319
1468 1471 1473 1476 1477 1479 1480 1480 1480 1479 1477 1474 1471 1468 1465 1462 1459 1455 1451 1446 1442 1437 1432 1427 1421 1416 1410 1404 1398 1392 1385 1379 1372 1366 1360 1355 1349 1344 1338 1332 1324 1318 1311
1467 1470 1473 1475 1476 1478 1478 1478 1477 1475 1473 1471 1468 1465 1462 1459 1455 1451 1446 1442 1437 1432 1427 1422 1416 1411 1405 1399 1393 1387 1380 1373 1366 1359 1352 1346 1341 1336 1330 1324 1318 1312 1305
1467 1469 1471 1473 1475 1476 1476 1475 1474 1472 1470 1467 1465 1462 1458 1455 1451 1447 1442 1437 1432 1427 1422 1417 1411 1405 1399 1393 1386 1380 1374 1367 1360 1353 1346 1340 1334 1329 1321 1314 1308 1301 1295
1466 1468 1470 1472 1473 1473 1473 1472 1471 1469 1467 1464 1462 1458 1455 1451 1447 1443 1438 1433 1428 1423 1417 1411 1405 1399 1392 1386 1379 1373 1367 1360 1353 1347 1341 1334 1327 1321 1315 1306 1298 1289 1282
1466 1467 1469 1470 1471 1471 1470 1469 1467 1466 1464 1461 1458 1455 1451 1447 1443 1438 1434 1429 1423 1417 1411 1405 1399 1392 1386 1380 1374 1368 1360 1353 1347 1341 1335 1329 1322 1314 1308 1300 1289 1279 1269
1464 1466 1467 1468 1469 1468 1467 1466 1464 1463 1460 1458 1455 1451 1447 1443 1439 1435 1430 1424 1418 1412 1405 1399 1394 1387 1380 1374 1369 1364 1356 1349 1341 1334 1328 1322 1315 1308 1301 1293 1283 1271 1261
1463 1464 1465 1466 1466 1465 1464 1463 1461 1459 1457 1454 1451 1448 1444 1440 1435 1430 1425 1419 1413 1406 1400 1393 1387 1381 1375 1369 1364 1359 1353 1345 1337 1329 1321 1314 1308 1301 1293 1285 1276 1266 1257
1461 1462 1463 1463 1463 1462 1461 1460 1458 1456 1453 1451 1448 1444 1440 1436 1431 1425 1420 1414 1408 1400 1393 1386 1379 1374 1370 1365 1358 1353 1348 1341 1333 1324 1316 1308 1302 1294 1285 1276 1268 1260 1251
1459 1460 1460 1460 1460 1459 1458 1456 1454 1452 1449 1446 1443 1440 1435 1431 1426 1421 1414 1408 1402 1395 1388 1381 1374 1368 1363 1358 1353 1348 1342 1335 1328 1320 1312 1304 1296 1287 1277 1269 1261 1253 1243
1457 1457 1458 1457 1457 1456 1454 1452 1450 1448 1445 1442 1438 1434 1430 1425 1420 1415 1410 1403 1397 1390 1384 1378 1372 1365 1359 1353 1347 1342 1335 1329 1322 1314 1306 1298 1289 1281 1273 1263 1254 1246 1239
1454 1454 1454 1454 1454 1453 1451 1449 1447 1444 1441 1437 1433 1429 1424 1419 1414 1409 1404 1398 1392 1388 1382 1376 1369 1362 1355 1350 1345 1339 1331 1324 1317 1309 1299 1291 1283 1274 1266 1257 1249 1241 1233
1451 1451 1451 1451 1450 1449 1448 1446 1443 1440 1436 1431 1427 1423 1418 1413 1408 1402 1396 1391 1388 1383 1377 1372 1367 1360 1354 1347 1341 1335 1328 1320 1313 1305 1296 1288 1280 1272 1264 1254 1244 1236 1228